Regional Weather Roundup
Issued by NWS

Home | Current Version | Previous Version | Text Only | Print | Product List | Glossary On
Versions: 1 2 3 4 5 6 7 8 9 10 11 12 13 14 15 16 17 18 19 20 21 22 23 24 25 26 27 28 29 30 31 32 33 34 35 36 37 38 39 40 41 42 43 44 45 46 47 48 49 50
000
ASUS45 KPSR 291410
RWRAZ

ARIZONA HOURLY REGIONAL WEATHER ROUNDUP
NATIONAL WEATHER SERVICE PHOENIX AZ
700 AM MST SAT APR 29 2017

NOTE: FAIR INDICATES FEW OR NO CLOUDS BELOW 12,000 FEET WITH NO
SIGNIFICANT WEATHER AND/OR OBSTRUCTIONS TO VISIBILITY.

AZZ001>003-036-291500-
NORTHWEST ARIZONA

CITY           SKY/WX    TMP DP  RH WIND       PRES   REMARKS
BULLHEAD CITY  SUNNY     63  21  20 N7G15     30.01R
KINGMAN        SUNNY     47  32  56 NE7       30.04R
$$

AZZ004>008-015-016-018-291500-
NORTH CENTRAL ARIZONA

CITY           SKY/WX    TMP DP  RH WIND       PRES   REMARKS
GRAND CANYON   SUNNY     31  18  58 NW6       30.00R WCI  25
WILLIAMS       SUNNY     32  18  55 CALM      30.00R
PRESCOTT       SUNNY     41  19  41 NW10      30.00R
FLAGSTAFF      SUNNY     35  15  44 CALM      29.97R
PAYSON         SUNNY     43  18  36 NE12      29.97R
PAGE           MOSUNNY   46  24  42 NW5       29.96R
$$

AZZ009>014-017-291500-
NORTHEAST ARIZONA

CITY           SKY/WX    TMP DP  RH WIND       PRES   REMARKS
WINSLOW        SUNNY     39  18  42 NW6       29.97R WCI  35
SAINT JOHNS    SUNNY     34  25  69 W9        29.92R WCI  27
WINDOW ROCK    MOSUNNY   30  20  66 N3        29.90R
SHOW LOW       SUNNY     30  14  51 NW6       29.95R WCI  24
$$

AZZ540-542>544-546-548-291500-
GREATER PHOENIX AREA

CITY           SKY/WX    TMP DP  RH WIND       PRES   REMARKS
PHOENIX        SUNNY     61  18  18 NW8       29.89R
BUCKEYE        SUNNY     57  16  19 NW9       29.93R
GLENDALE       SUNNY     57  21  24 NW7       29.92
LUKE AFB       SUNNY     59  24  26 N8        29.91R
DEER VALLEY    SUNNY     59  18  20 N9        29.90R
SCOTTSDALE     SUNNY     58  18  21 VRB6      29.91R
MESA-FALCON    MOSUNNY  N/A N/A N/A NW14G20   29.91R
MESA-GATEWAY   SUNNY     57  19  23 NW6       29.90R
CHANDLER       SUNNY     59  18  20 NW12      29.90R
$$

AZZ539-553-291500-
SOUTHWEST MARICOPA COUNTY AND PINAL COUNTY

CITY           SKY/WX    TMP DP  RH WIND       PRES   REMARKS
CASA GRANDE    SUNNY     59  17  19 NW12      29.92R
GILA BEND      FAIR      62  13  15 NW8       29.92R
$$

AZZ503-504-507>509-291500-
SOUTHEAST ARIZONA

CITY           SKY/WX    TMP DP  RH WIND       PRES   REMARKS
TUCSON         SUNNY     56  13  18 CALM      29.93R
DAVIS-MONTHAN  SUNNY     55  13  19 W9        29.91R
RYAN FIELD     SUNNY     55  14  19 W6        29.94
NOGALES        SUNNY     53  11  18 NW7       29.92R
SIERRA VISTA   MOSUNNY   50   8  18 W14       29.93R
DOUGLAS        CLOUDY    51  10  19 MISG      29.90R
SAFFORD        SUNNY     50  16  25 NW12      29.87R
$$

AZZ532-291500-
SOUTHWEST ARIZONA

CITY           SKY/WX    TMP DP  RH WIND       PRES   REMARKS
YUMA           SUNNY     68  19  15 NW15G21   29.96R
$$

CAZ041-043-047-048-061-525>527-560>570-291500-
SOUTHERN CALIFORNIA

CITY           SKY/WX    TMP DP  RH WIND       PRES   REMARKS
DOWNTOWN L.A.  SUNNY     65  24  21 CALM      29.95R
L.A. AIRPORT   CLEAR     67  16  14 N6        29.96R
SAN DIEGO      MOSUNNY   62  48  60 CALM      29.93R
BURBANK        SUNNY     66   9  10 NE5       29.98R
ONTARIO        SUNNY     65  12  12 NE21G36   29.97R
RIVERSIDE      SUNNY     64  17  16 VRB7G25   30.00R
PALM SPRINGS   SUNNY     67  16  14 VRB5      30.06R
EL CENTRO NAS  SUNNY     63  26  24 W7        30.00R
IMPERIAL       SUNNY     64  29  26 NW6       29.97R
BLYTHE         SUNNY     65  21  18 N6        29.99R
NEEDLES        SUNNY     65  24  21 N13       30.01R
$$

NVZ020-UTZ003-291500-
SOUTHERN NEVADA-UTAH

CITY           SKY/WX    TMP DP  RH WIND       PRES   REMARKS
LAS VEGAS      SUNNY     58  17  20 NW16      30.06R
SALT LAKE CITY MOSUNNY   39  27  62 W12       30.15R WCI  32
$$

NMZ009-TXZ055-291500-
NEW MEXICO-WEST TEXAS

CITY           SKY/WX    TMP DP  RH WIND       PRES   REMARKS
ALBUQUERQUE    LGT RAIN  35  34  96 E7        29.89R FOG     WCI  29
EL PASO        RAIN      45  38  76 NW10      29.91R
$$


........................KEY........................
SKY/WX - SKY CONDITION/WEATHER
TMP    - TEMPERATURE IN FAHRENHEIT
DP     - DEW POINT IN FAHRENHEIT
RH     - RELATIVE HUMIDITY IN PERCENT
WIND   - DIRECTION AND SPEED IN MILES PER HOUR (MPH)
VRB    - VARIABLE WIND DIRECTION
PRES   - MEAN SEA LEVEL PRESSURE IN INCHES OF MERCURY
         F - FALLING PRESSURE   R - RISING PRESSURE
         S - STEADY PRESSURE
VSB    - VISIBILITY IN MILES
HX     - HEAT INDEX IN FAHRENHEIT
WCI    - WIND CHILL INDEX IN FAHRENHEIT
TC     - TEMPERATURE IN CELSIUS WHICH IS ALSO KNOWN AS
         TEMPERATURE IN CENTIGRADE
AFB    - AIR FORCE BASE
         LUKE AFB IS LUKE AIR FORCE BASE
         DAVIS-MONTHAN IS DAVIS-MONTHAN AIR FORCE BASE
NAS    - NAVAL AIR STATION
         EL CENTRO NAS IS EL CENTRO NAVAL AIR STATION
N/A    - NOT AVAILABLE




USA.gov is the U.S. government's official web portal to all federal, state and local government web resources and services.